Location: Unspecified
(47.6578°N, 23.5640°E)
Time: 22:07:53
(UTC+02:00)

ISS - Pass Details

Date: 12 December 2017
Orbit: 402 x 407 km, 51.6° (Epoch: 13 December)

Event Time Altitude Azimuth Distance (km) Brightness Sun altitude
Rises 18:19:46 0° 293° (WNW) 2,332 0.9 -16.9°
Reaches altitude 10° 18:21:52 10° 292° (WNW) 1,468 -0.2 -17.2°
Maximum altitude 18:25:09 78° 207° (SSW) 419 -3.8 -17.8°
Enters shadow 18:26:01 46° 129° (SE) 559 -3.4 -17.9°
